Weather History for Litchfield, MN

Change the Weather History Date:

Monday, December 16, 2013

  Actual Average Record
Temperature  
Mean Temperature 16 °F -  
Max Temperature 33 °F 26 °F 47 °F (1959)
Min Temperature 1 °F 8 °F -20 °F (1963)
Degree Days  
Heating Degree Days 50    
Moisture  
Dew Point 10 °F    
Average Humidity 89    
Maximum Humidity 100    
Minimum Humidity 78    
Precipitation  
Precipitation 0.00 in - - ()
Sea Level Pressure  
Sea Level Pressure 29.95 in    
Wind  
Wind Speed 6 mph (SSW)    
Max Wind Speed 14 mph    
Max Gust Speed 20 mph    
Visibility 8 miles    
Events Snow    
Averages and records for this station are not official NWS values.
T = Trace of Precipitation, MM = Missing Value Source: NWS Daily Summary

Daily Weather History Graph

Daily Weather History Graph

Search for Another Location

Airport:

Trip Planner

Search our weather history database for the weather conditions in past years. The results will help you decide how hot, cold, wet, or windy it might be!

Date:

Astronomy

Dec. 16, 2013 Rise Set
Actual Time 7:50 AM CST 4:36 PM CST
Civil Twilight 7:16 AM CST 5:10 PM CST
Nautical Twilight 6:39 AM CST 5:48 PM CST
Astronomical Twilight 6:03 AM CST 6:24 PM CST
Moon 4:30 PM CST (12/16) 6:57 AM CST (12/16)
Length of Visible Light 9h 54m
Length of Day
8h 46m
Full, 100% of the Moon is Illuminated
Dec 16
Full
Dec 17
Full
Dec 25
Last Quarter
Jan 1
New
Jan 7
First Quarter

Hourly Weather History & Observations

Time (CST) Temp. Windchill Dew Point Humidity Pressure Visibility Wind Dir Wind Speed Gust Speed Precip Events Conditions
12:13 AM 1.4 °F -9.9 °F -4.0 °F 78% 30.07 in 10.0 mi ESE 5.8 mph - N/A   Overcast
12:32 AM 1.4 °F -11.3 °F -4.0 °F 78% 30.06 in 10.0 mi SE 6.9 mph - N/A   Overcast
12:53 AM 1.4 °F -11.3 °F -2.2 °F 85% 30.05 in 10.0 mi ESE 6.9 mph - N/A   Overcast
1:13 AM 3.2 °F -10.3 °F -2.2 °F 78% 30.04 in 10.0 mi ESE 8.1 mph - N/A   Overcast
1:32 AM 1.4 °F -9.9 °F -2.2 °F 85% 30.05 in 10.0 mi ESE 5.8 mph - N/A   Overcast
1:53 AM 1.4 °F -9.9 °F -2.2 °F 85% 30.04 in 10.0 mi SE 5.8 mph - N/A   Overcast
2:12 AM 3.2 °F -9.1 °F -2.2 °F 78% 30.04 in 10.0 mi SE 6.9 mph - N/A   Mostly Cloudy
2:33 AM 3.2 °F -10.3 °F -2.2 °F 78% 30.03 in 10.0 mi SE 8.1 mph - N/A   Mostly Cloudy
2:53 AM 3.2 °F -9.1 °F -2.2 °F 78% 30.03 in 10.0 mi SSE 6.9 mph - N/A   Overcast
3:13 AM 3.2 °F -10.3 °F -0.4 °F 85% 30.02 in 10.0 mi SE 8.1 mph - N/A   Overcast
3:32 AM 3.2 °F -7.8 °F -0.4 °F 85% 30.02 in 10.0 mi SSE 5.8 mph - N/A   Overcast
3:53 AM 3.2 °F -6.2 °F -0.4 °F 85% 30.00 in 10.0 mi SSE 4.6 mph - N/A   Overcast
4:13 AM 5.0 °F -5.6 °F 1.4 °F 85% 29.99 in 10.0 mi SSE 5.8 mph - N/A   Overcast
4:32 AM 5.0 °F -5.6 °F 1.4 °F 85% 29.98 in 10.0 mi SSE 5.8 mph - N/A   Overcast
4:53 AM 5.0 °F -5.6 °F 1.4 °F 85% 29.97 in 10.0 mi SSE 5.8 mph - N/A   Overcast
5:13 AM 5.0 °F -5.6 °F 1.4 °F 85% 29.96 in 10.0 mi SSE 5.8 mph - N/A   Overcast
5:32 AM 6.8 °F -2.0 °F 3.2 °F 85% 29.96 in 10.0 mi SSE 4.6 mph - N/A   Overcast
5:53 AM 6.8 °F -0.1 °F 3.2 °F 85% 29.98 in 2.5 mi SSE 3.5 mph - N/A Snow Light Snow
6:13 AM 6.8 °F -5.9 °F 3.2 °F 85% 29.96 in 4.0 mi SE 8.1 mph - N/A Snow Light Snow
6:32 AM 6.8 °F -3.5 °F 3.2 °F 85% 29.95 in 5.0 mi SSE 5.8 mph - N/A Snow Light Snow
6:53 AM 6.8 °F -2.0 °F 5.0 °F 92% 29.95 in 7.0 mi SE 4.6 mph - N/A Snow Light Snow
7:13 AM 8.6 °F 2.0 °F 5.0 °F 85% 29.96 in 1.5 mi SE 3.5 mph - N/A Snow Light Snow
7:32 AM 8.6 °F - 5.0 °F 85% 29.97 in 1.8 mi Calm Calm - N/A Snow Light Snow
7:53 AM 8.6 °F - 6.8 °F 92% 29.96 in 3.0 mi Calm Calm - N/A   Overcast
8:13 AM 8.6 °F 2.0 °F 6.8 °F 92% 29.96 in 7.0 mi SE 3.5 mph - N/A Snow Light Snow
8:32 AM 8.6 °F 0.1 °F 6.8 °F 92% 29.95 in 10.0 mi SSE 4.6 mph - N/A   Overcast
8:53 AM 8.6 °F 2.0 °F 6.8 °F 92% 29.96 in 10.0 mi SSE 3.5 mph - N/A   Overcast
9:13 AM 8.6 °F 0.1 °F 6.8 °F 92% 29.95 in 10.0 mi SE 4.6 mph - N/A   Overcast
9:32 AM 8.6 °F -2.6 °F 6.8 °F 92% 29.94 in 7.0 mi SSE 6.9 mph - N/A Snow Light Snow
9:53 AM 10.4 °F -0.4 °F 6.8 °F 85% 29.93 in 10.0 mi SSE 6.9 mph - N/A   Overcast
10:13 AM 10.4 °F 4.0 °F 8.6 °F 92% 29.94 in 7.0 mi South 3.5 mph - N/A   Overcast
10:33 AM 10.4 °F 4.0 °F 8.6 °F 92% 29.94 in 10.0 mi SSW 3.5 mph - N/A   Overcast
10:52 AM 10.4 °F 2.2 °F 8.6 °F 92% 29.94 in 7.0 mi SSW 4.6 mph - N/A   Overcast
11:13 AM 12.2 °F 6.1 °F 10.4 °F 92% 29.95 in 3.0 mi WSW 3.5 mph - N/A Snow Light Snow
11:33 AM 12.2 °F 6.1 °F 10.4 °F 92% 29.95 in 7.0 mi SW 3.5 mph - N/A   Overcast
11:52 AM 14.0 °F 5.1 °F 10.4 °F 86% 29.93 in 10.0 mi SW 5.8 mph - N/A   Overcast
12:13 PM 14.0 °F 5.1 °F 10.4 °F 86% 29.92 in 10.0 mi SW 5.8 mph - N/A Snow Light Snow
12:33 PM 15.8 °F 6.1 °F 12.2 °F 86% 29.91 in 10.0 mi SW 6.9 mph - N/A   Overcast
12:52 PM 15.8 °F 5.1 °F 12.2 °F 86% 29.92 in 7.0 mi WSW 8.1 mph - N/A   Overcast
1:13 PM 15.8 °F 7.2 °F 12.2 °F 86% 29.91 in 7.0 mi WSW 5.8 mph - N/A   Overcast
1:33 PM 17.6 °F 9.3 °F 14.0 °F 86% 29.92 in 10.0 mi West 5.8 mph - N/A   Overcast
1:52 PM 17.6 °F 8.2 °F 15.8 °F 93% 29.92 in 10.0 mi WSW 6.9 mph - N/A   Overcast
2:13 PM 17.6 °F 8.2 °F 15.8 °F 93% 29.93 in 7.0 mi West 6.9 mph - N/A   Overcast
2:33 PM 17.6 °F 9.3 °F 15.8 °F 93% 29.93 in 10.0 mi West 5.8 mph - N/A   Overcast
2:52 PM 19.4 °F 10.4 °F 15.8 °F 86% 29.93 in 7.0 mi West 6.9 mph - N/A   Mostly Cloudy
3:13 PM 17.6 °F 10.7 °F 15.8 °F 93% 29.93 in 7.0 mi West 4.6 mph - N/A   Clear
3:33 PM 19.4 °F 14.3 °F 15.8 °F 86% 29.94 in 10.0 mi West 3.5 mph - N/A   Clear
3:52 PM 17.6 °F 10.7 °F 15.8 °F 93% 29.95 in 7.0 mi WSW 4.6 mph - N/A   Clear
4:13 PM 17.6 °F 10.7 °F 15.8 °F 93% 29.95 in 7.0 mi WSW 4.6 mph - N/A   Clear
4:33 PM 15.8 °F - 14.0 °F 93% 29.95 in 7.0 mi Calm Calm - N/A   Clear
4:52 PM 12.2 °F 6.1 °F 12.2 °F 100% 29.95 in 7.0 mi SW 3.5 mph - N/A   Clear
5:13 PM 12.2 °F 4.3 °F 12.2 °F 100% 29.95 in 7.0 mi WSW 4.6 mph - N/A   Clear
5:32 PM 12.2 °F 4.3 °F 12.2 °F 100% 29.95 in 7.0 mi SW 4.6 mph - N/A   Clear
5:53 PM 12.2 °F 4.3 °F 12.2 °F 100% 29.95 in 7.0 mi SW 4.6 mph - N/A   Clear
6:13 PM 14.0 °F 6.5 °F 12.2 °F 93% 29.94 in 10.0 mi SW 4.6 mph - N/A   Clear
6:32 PM 15.8 °F - 14.0 °F 93% 29.93 in 10.0 mi Calm Calm - N/A   Clear
6:53 PM 15.8 °F - 14.0 °F 93% 29.92 in 10.0 mi Calm Calm - N/A   Clear
7:13 PM 15.8 °F 8.6 °F 14.0 °F 93% 29.92 in 10.0 mi SW 4.6 mph - N/A   Clear
7:32 PM 17.6 °F - 15.8 °F 93% 29.92 in 10.0 mi Calm Calm - N/A   Clear
7:53 PM 17.6 °F - 15.8 °F 93% 29.92 in 10.0 mi Calm Calm - N/A   Clear
8:13 PM 17.6 °F 10.7 °F 17.6 °F 100% 29.91 in 10.0 mi WSW 4.6 mph - N/A   Clear
8:32 PM 19.4 °F 11.5 °F 17.6 °F 93% 29.92 in 10.0 mi WSW 5.8 mph - N/A   Clear
8:53 PM 21.2 °F 11.7 °F 21.2 °F 100% 29.91 in 10.0 mi West 8.1 mph - N/A   Clear
9:13 PM 24.8 °F 15.3 °F 21.2 °F 86% 29.90 in 10.0 mi West 9.2 mph - N/A   Clear
9:32 PM 26.6 °F 17.5 °F 23.0 °F 86% 29.91 in 10.0 mi West 9.2 mph - N/A   Clear
9:53 PM 28.4 °F 19.1 °F 24.8 °F 86% 29.90 in 10.0 mi West 10.4 mph 16.1 mph N/A   Clear
10:13 PM 30.2 °F 21.9 °F 24.8 °F 80% 29.90 in 10.0 mi West 9.2 mph 19.6 mph N/A   Clear
10:32 PM 30.2 °F 21.3 °F 26.6 °F 86% 29.90 in 10.0 mi WSW 10.4 mph 16.1 mph N/A   Clear
10:53 PM 30.2 °F 21.9 °F 26.6 °F 86% 29.90 in 10.0 mi WSW 9.2 mph - N/A   Scattered Clouds
11:13 PM 30.2 °F 22.6 °F 26.6 °F 86% 29.90 in 10.0 mi WSW 8.1 mph 16.1 mph N/A   Mostly Cloudy
11:53 PM 33.8 °F 24.3 °F 28.4 °F 81% 29.89 in 10.0 mi West 13.8 mph - N/A   Scattered Clouds